Suffolk, VA

4:21 AM EDT on March 24, 2017 (GMT -0400)
Suffolk Municipal

Weather History for KSFQ - March, 2014

Change the Weather History Date:

Wednesday, March 12, 2014

  Actual Average Record
Temperature  
Mean Temperature 58 °F -  
Max Temperature 68 °F 60 °F 88 °F (1990)
Min Temperature 46 °F 37 °F 22 °F (1969)
Degree Days  
Heating Degree Days 7    
Growing Degree Days 8 (Base 50)    
Moisture  
Dew Point 50 °F    
Average Humidity 70    
Maximum Humidity 91    
Minimum Humidity 51    
Precipitation  
Precipitation 0.19 in - - ()
Sea Level Pressure  
Sea Level Pressure 29.45 in    
Wind  
Wind Speed 9 mph (SSW)    
Max Wind Speed 28 mph    
Max Gust Speed 39 mph    
Visibility 10 miles    
Events Rain    
Averages and records for this station are not official NWS values.
T = Trace of Precipitation, MM = Missing Value Source: NWS Daily Summary

Daily Weather History Graph

Daily Weather History Graph

Search for Another Location

Airport or City:

Trip Planner

Search our weather history database for the weather conditions in past years. The results will help you decide how hot, cold, wet, or windy it might be!

Date:

Astronomy

Mar. 12, 2014 Rise Set
Actual Time 7:21 AM EDT 7:11 PM EDT
Civil Twilight 6:55 AM EDT 7:36 PM EDT
Nautical Twilight 6:25 AM EDT 8:06 PM EDT
Astronomical Twilight 5:55 AM EDT 8:37 PM EDT
Moon 3:44 PM EDT (3/12) 4:47 AM EDT (3/12)
Length of Visible Light 12h 40m
Length of Day
11h 49m
Waxing Gibbous, 85% of the Moon is Illuminated
Mar 12
Waxing Gibbous
Mar 16
Full
Mar 23
Last Quarter
Mar 30
New
Apr 7
First Quarter

Hourly Weather History & Observations

Time (EDT) Temp. Dew Point Humidity Pressure Visibility Wind Dir Wind Speed Gust Speed Precip Events Conditions
12:15 AM 53.8 °F 43.5 °F 68% 29.68 in 10.0 mi South 4.6 mph - N/A   Clear
12:35 AM 53.8 °F 43.9 °F 69% 29.70 in 10.0 mi SSW 4.6 mph - N/A   Clear
12:55 AM 54.3 °F 43.9 °F 68% 29.69 in 10.0 mi South 4.6 mph - N/A   Clear
1:15 AM 53.6 °F 44.2 °F 71% 29.68 in 10.0 mi SSW 3.5 mph - N/A   Clear
1:35 AM 52.3 °F 44.1 °F 73% 29.68 in 10.0 mi South 3.5 mph - N/A   Clear
1:55 AM 51.6 °F 43.7 °F 74% 29.67 in 10.0 mi South 3.5 mph - N/A   Clear
2:15 AM 52.3 °F 44.1 °F 73% 29.66 in 10.0 mi Calm Calm - N/A   Clear
2:35 AM 50.5 °F 43.7 °F 77% 29.65 in 10.0 mi Calm Calm - N/A   Clear
2:55 AM 49.3 °F 43.9 °F 82% 29.64 in 10.0 mi Calm Calm - N/A   Clear
3:15 AM 51.3 °F 44.2 °F 77% 29.63 in 10.0 mi Calm Calm - N/A   Clear
3:35 AM 48.7 °F 43.2 °F 81% 29.62 in 10.0 mi South 4.6 mph - N/A   Clear
3:55 AM 50.2 °F 44.2 °F 80% 29.61 in 10.0 mi SSE 3.5 mph - N/A   Clear
4:15 AM 50.9 °F 44.6 °F 79% 29.60 in 10.0 mi South 4.6 mph - N/A   Clear
4:35 AM 50.9 °F 44.6 °F 79% 29.59 in 10.0 mi South 3.5 mph - N/A   Clear
4:55 AM 50.9 °F 44.6 °F 79% 29.59 in 10.0 mi South 3.5 mph - N/A   Clear
5:15 AM 51.1 °F 45.5 °F 81% 29.58 in 10.0 mi South 4.6 mph - N/A   Clear
5:35 AM 51.4 °F 45.9 °F 81% 29.59 in 10.0 mi South 5.8 mph - N/A   Clear
5:55 AM 52.9 °F 46.4 °F 79% 29.58 in 10.0 mi South 6.9 mph - N/A   Clear
6:15 AM 53.2 °F 46.6 °F 78% 29.57 in 10.0 mi South 6.9 mph - N/A   Clear
6:35 AM 54.1 °F 46.6 °F 76% 29.57 in 10.0 mi South 4.6 mph - N/A   Clear
6:55 AM 54.0 °F 46.9 °F 77% 29.57 in 10.0 mi South 6.9 mph - N/A   Clear
7:15 AM 54.5 °F 47.5 °F 77% 29.57 in 10.0 mi South 9.2 mph - N/A   Clear
7:35 AM 55.4 °F 48.0 °F 76% 29.57 in 10.0 mi SSW 6.9 mph - N/A   Clear
7:55 AM 55.8 °F 48.6 °F 77% 29.57 in 10.0 mi South 6.9 mph - N/A   Clear
8:15 AM 56.5 °F 49.3 °F 77% 29.56 in 10.0 mi South 8.1 mph - N/A   Clear
8:35 AM 57.2 °F 50.0 °F 77% 29.55 in 10.0 mi South 8.1 mph - N/A   Clear
8:55 AM 58.3 °F 50.4 °F 75% 29.55 in 10.0 mi SSW 8.1 mph - N/A   Clear
9:15 AM 60.1 °F 51.1 °F 72% 29.55 in 10.0 mi SSW 9.2 mph - N/A   Clear
9:35 AM 61.7 °F 51.4 °F 69% 29.55 in 10.0 mi SSW 11.5 mph - N/A   Clear
9:55 AM 64.0 °F 52.3 °F 66% 29.54 in 10.0 mi SSW 11.5 mph - N/A   Clear
10:15 AM 66.2 °F 52.2 °F 61% 29.53 in 10.0 mi SSW 12.7 mph 19.6 mph N/A   Clear
10:35 AM 67.3 °F 52.5 °F 59% 29.52 in 10.0 mi SW 12.7 mph 18.4 mph N/A   Clear
10:55 AM 66.6 °F 52.3 °F 60% 29.52 in 10.0 mi SW 12.7 mph 16.1 mph N/A   Scattered Clouds
11:15 AM 66.6 °F 52.5 °F 61% 29.51 in 10.0 mi SSW 15.0 mph 20.7 mph N/A   Overcast
11:35 AM 66.9 °F 52.7 °F 60% 29.49 in 10.0 mi SSW 11.5 mph - N/A   Overcast
11:55 AM 67.1 °F 52.3 °F 59% 29.47 in 10.0 mi SSW 13.8 mph 17.3 mph N/A   Overcast
12:15 PM 67.3 °F 52.0 °F 58% 29.45 in 10.0 mi SSW 12.7 mph 17.3 mph N/A   Overcast
12:35 PM 67.1 °F 51.4 °F 57% 29.44 in 10.0 mi SSW 13.8 mph 20.7 mph N/A   Overcast
12:55 PM 66.6 °F 52.0 °F 59% 29.43 in 10.0 mi SSW 13.8 mph 20.7 mph N/A   Overcast
1:15 PM 67.1 °F 52.5 °F 59% 29.41 in 10.0 mi SSW 12.7 mph 20.7 mph N/A   Overcast
1:35 PM 68.2 °F 52.0 °F 56% 29.40 in 10.0 mi SSW 21.9 mph 27.6 mph N/A   Overcast
1:55 PM 67.3 °F 52.5 °F 59% 29.37 in 10.0 mi SSW 12.7 mph 24.2 mph N/A   Overcast
2:15 PM 68.0 °F 52.7 °F 58% 29.35 in 10.0 mi South 17.3 mph 26.5 mph N/A   Overcast
2:35 PM 67.5 °F 53.2 °F 60% 29.32 in 10.0 mi South 16.1 mph 23.0 mph N/A   Overcast
2:55 PM 67.5 °F 53.8 °F 61% 29.31 in 10.0 mi SSW 17.3 mph 25.3 mph N/A   Overcast
3:15 PM 67.1 °F 54.5 °F 64% 29.30 in 10.0 mi SSW 17.3 mph 25.3 mph N/A   Overcast
3:35 PM 67.5 °F 54.7 °F 64% 29.28 in 10.0 mi SSW 16.1 mph 20.7 mph N/A   Overcast
3:55 PM 67.8 °F 55.4 °F 64% 29.27 in 10.0 mi SSW 18.4 mph 26.5 mph N/A   Overcast
4:15 PM 67.1 °F 55.4 °F 66% 29.26 in 10.0 mi SW 18.4 mph 27.6 mph N/A   Overcast
4:35 PM 66.6 °F 55.8 °F 68% 29.26 in 10.0 mi SW 18.4 mph 28.8 mph N/A   Overcast
4:55 PM 66.2 °F 56.3 °F 70% 29.25 in 10.0 mi SSW 18.4 mph 23.0 mph N/A   Overcast
5:15 PM 65.8 °F 56.5 °F 72% 29.24 in 10.0 mi SW 16.1 mph 23.0 mph N/A   Overcast
5:30 PM 65.7 °F 56.5 °F 72% 29.24 in 10.0 mi SSW 13.8 mph 21.9 mph N/A   Overcast
5:55 PM 65.7 °F 56.3 °F 72% 29.23 in 10.0 mi SW 15.0 mph 24.2 mph N/A   Overcast
6:15 PM 65.3 °F 56.3 °F 73% 29.22 in 10.0 mi SSW 13.8 mph 20.7 mph N/A   Overcast
6:35 PM 65.3 °F 56.3 °F 73% 29.22 in 10.0 mi SW 12.7 mph 25.3 mph N/A   Overcast
6:55 PM 65.3 °F 56.3 °F 73% 29.21 in 10.0 mi SSW 16.1 mph 19.6 mph N/A   Overcast
7:15 PM 64.9 °F 56.3 °F 74% 29.21 in 10.0 mi SW 12.7 mph 23.0 mph N/A   Overcast
7:35 PM 64.8 °F 55.9 °F 73% 29.22 in 10.0 mi SW 10.4 mph 21.9 mph N/A   Overcast
7:55 PM 64.8 °F 55.8 °F 73% 29.24 in 10.0 mi SW 13.8 mph 23.0 mph N/A   Overcast
8:15 PM 64.8 °F 55.8 °F 73% 29.24 in 10.0 mi SW 15.0 mph 18.4 mph N/A   Overcast
8:35 PM 64.4 °F 55.8 °F 73% 29.23 in 10.0 mi SW 11.5 mph 18.4 mph N/A   Overcast
8:55 PM 62.6 °F 57.2 °F 82% 29.26 in 5.0 mi WSW 19.6 mph 23.0 mph 0.05 in Rain Heavy Rain
9:15 PM 59.9 °F 56.7 °F 89% 29.28 in 7.0 mi WSW 13.8 mph 20.7 mph 0.07 in Rain Rain
9:35 PM 59.0 °F 56.3 °F 91% 29.30 in 7.0 mi West 17.3 mph 23.0 mph 0.12 in Rain Light Rain
9:55 PM 57.6 °F 52.0 °F 82% 29.30 in 10.0 mi West 17.3 mph 31.1 mph 0.13 in Rain Light Rain
10:15 PM 55.2 °F 47.5 °F 75% 29.32 in 10.0 mi WNW 23.0 mph 34.5 mph N/A   Overcast
10:35 PM 52.7 °F 39.9 °F 62% 29.36 in 10.0 mi WNW 20.7 mph 32.2 mph N/A   Overcast
10:55 PM 51.1 °F 37.2 °F 59% 29.38 in 10.0 mi WNW 20.7 mph 34.5 mph N/A   Overcast
11:15 PM 49.3 °F 32.0 °F 51% 29.40 in 10.0 mi WNW 20.7 mph 33.4 mph N/A   Scattered Clouds
11:35 PM 48.2 °F 30.6 °F 51% 29.42 in 10.0 mi WNW 27.6 mph 39.1 mph N/A   Scattered Clouds
11:55 PM 46.9 °F 31.5 °F 55% 29.45 in 10.0 mi West 13.8 mph 21.9 mph 0.01 in   Clear